TimeCST,TemperatureF,Dew PointF,Humidity,Sea Level PressureIn,VisibilityMPH,Wind Direction,Wind SpeedMPH,Gust SpeedMPH,PrecipitationIn,Events,Conditions,WindDirDegrees,DateUTC
12:54 AM,21.0,17.1,85,30.25,10.0,Calm,Calm,-,N/A,,Clear,0,2012-12-12 06:54:00
1:54 AM,19.9,16.0,85,30.26,10.0,Calm,Calm,-,N/A,,Clear,0,2012-12-12 07:54:00
2:54 AM,19.9,17.1,89,30.26,10.0,Calm,Calm,-,N/A,,Clear,0,2012-12-12 08:54:00
3:54 AM,19.9,16.0,85,30.27,10.0,Calm,Calm,-,N/A,,Clear,0,2012-12-12 09:54:00
4:54 AM,21.0,17.1,85,30.29,10.0,Calm,Calm,-,N/A,,Clear,0,2012-12-12 10:54:00
5:54 AM,19.4,15.8,86,30.27,10.0,Calm,Calm,-,N/A,,Clear,0,2012-12-12 11:54:00
6:54 AM,19.9,16.0,85,30.32,10.0,Calm,Calm,-,N/A,,Clear,0,2012-12-12 12:54:00
7:54 AM,21.0,18.0,88,30.34,10.0,Calm,Calm,-,N/A,,Clear,0,2012-12-12 13:54:00
8:54 AM,27.0,23.0,85,30.36,10.0,Calm,Calm,-,N/A,,Clear,0,2012-12-12 14:54:00
9:54 AM,33.1,25.0,72,30.36,10.0,Calm,Calm,-,N/A,,Clear,0,2012-12-12 15:54:00
10:54 AM,41.0,28.0,60,30.35,10.0,Calm,Calm,-,N/A,,Clear,0,2012-12-12 16:54:00
11:54 AM,48.9,19.9,32,30.32,10.0,Variable,3.5,-,N/A,,Clear,0,2012-12-12 17:54:00
12:54 PM,50.0,16.0,26,30.30,10.0,SSW,9.2,-,N/A,,Clear,210,2012-12-12 18:54:00
1:54 PM,51.1,19.0,28,30.28,10.0,SSE,8.1,-,N/A,,Clear,160,2012-12-12 19:54:00
2:54 PM,51.1,18.0,27,30.27,10.0,SSE,6.9,-,N/A,,Clear,160,2012-12-12 20:54:00
3:54 PM,50.0,19.0,29,30.27,10.0,SE,3.5,-,N/A,,Clear,140,2012-12-12 21:54:00
4:54 PM,41.0,21.0,45,30.28,10.0,SE,3.5,-,N/A,,Clear,140,2012-12-12 22:54:00
5:54 PM,44.1,21.9,42,30.29,10.0,SSE,5.8,-,N/A,,Clear,150,2012-12-12 23:54:00
6:54 PM,41.0,21.9,47,30.29,10.0,SSE,3.5,-,N/A,,Clear,150,2012-12-13 00:54:00
7:54 PM,41.0,21.0,45,30.29,10.0,SSE,8.1,-,N/A,,Clear,160,2012-12-13 01:54:00
8:54 PM,42.1,19.9,41,30.30,10.0,South,6.9,-,N/A,,Clear,170,2012-12-13 02:54:00
9:54 PM,41.0,19.9,43,30.29,10.0,South,9.2,-,N/A,,Clear,180,2012-12-13 03:54:00
10:54 PM,41.0,21.0,45,30.30,10.0,South,9.2,-,N/A,,Clear,180,2012-12-13 04:54:00
11:54 PM,39.0,21.9,50,30.31,10.0,SW,5.8,-,N/A,,Clear,220,2012-12-13 05:54:00